Regional Weather Roundup
Issued by NWS Green Bay, WI

Home | Current Version | Previous Version | Graphics & Text | Print | Product List | Glossary Off
Versions: 1 2 3 4 5 6 7 8 9 10 11 12 13 14 15 16 17 18 19 20 21 22 23 24 25 26 27 28 29 30 31 32 33 34 35 36 37 38 39 40 41 42 43 44 45 46 47 48 49 50

327
ASUS43 KGRB 240100
RWRGRB

NORTH-CENTRAL AND NORTHEAST WISCONSIN REGIONAL WEATHER ROUNDUP
NATIONAL WEATHER SERVICE GREEN BAY WI
800 PM CDT SAT SEP 23 2017

WIZ005-009-010>012-018-019-240200-
NORTH CENTRAL WISCONSIN

CITY           SKY/WX    TMP DP  RH WIND       PRES   REMARKS
IRONWOOD       CLOUDY    77  70  79 S6        30.00R
MANITOWISH WTR NOT AVBL
ARBOR VITAE    NOT AVBL
EAGLE RIVER    NOT AVBL
LAND O LAKES   PTCLDY    68  66  91 CALM      30.05S
RHINELANDER    MOCLDY    72  67  84 CALM      30.05S
PHILLIPS       PTCLDY    71  69  92 CALM      30.02R
ANTIGO         NOT AVBL
TOMAHAWK       NOT AVBL
MERRILL        CLOUDY    73  67  82 CALM      30.03S
$$

WIZ013-073-240200-
NORTHEAST WISCONSIN

CITY           SKY/WX    TMP DP  RH WIND       PRES   REMARKS
IRON MOUNTAIN  CLEAR     75  65  70 S3        30.02R
MARINETTE      PTCLDY    76  67  73 SW6       30.03S
$$

WIZ017-030-035>037-045-240200-
CENTRAL WISCONSIN

CITY           SKY/WX    TMP DP  RH WIND       PRES   REMARKS
MEDFORD        NOT AVBL
WAUSAU         PTCLDY    77  65  66 SE5       30.01S
MOSINEE        MOCLDY    75  66  73 SE3       30.04S
MARSHFIELD     PTCLDY    76  64  66 S5        30.01S
WISC RAPIDS    CLEAR     72  67  84 SE6       30.02S
STEVENS POINT  NOT AVBL
WAUPACA        NOT AVBL
SHAWANO        CLEAR     79  66  64 S3        30.02S
CLINTONVILLE   NOT AVBL
WAUTOMA        CLEAR     73  69  87 CALM      30.02S
$$

WIZ038-039-048-051-240200-
FOX VALLEY

CITY           SKY/WX    TMP DP  RH WIND       PRES   REMARKS
NWS GREEN BAY  CLEAR     77  70  79 S7        30.03R
APPLETON       PTCLDY    77  64  65 S6        30.03R
OSHKOSH        CLEAR     74  68  81 SE6       30.03R
FOND DU LAC    CLEAR     76  66  71 S7        30.04R
$$

WIZ022-050-052-240200-
EAST CENTRAL WISCONSIN

CITY           SKY/WX    TMP DP  RH WIND       PRES   REMARKS
EPHRAIM        FAIR      75  64  68 S7        30.03S
WASHINGTON ISL NOT AVBL
STURGEON BAY   CLOUDY    76  66  71 S9        30.04S
MANITOWOC      CLEAR     72  66  81 SE5       30.06R
SHEBOYGAN      CLEAR     72  68  87 CALM      30.05S
$$

LMZ563-521-522-541>543-240200-
LAKESHORE

STATION/POSITION TIME  TEMP    WIND        PRES    VSBY  WAVE
                       AIR SEA DIR/SP/G                  HT/PER
                 (UTC) (F)     (DEG/KT/KT) (MB)    (MI)  (FT/S)
SHEBOYGAN LKSHOR 0000   74     190/  7/  8 1016.9R
KEWAUNEE LKSHORE 0030   66     170/  5/  6 1016.5S
NORTHPORT PIER   0040   77     170/  4/  8 1016.3S
N MID LAKE BUOY  2350   68 67  200/ 10/ 12 1017.2R         2/ 4
S GREEN BAY BUOY 0030   75 70  160/  6/  8 1016.5R
SISTER BAY LKSHO 0019   78     160/ 10/ 13   N/A
MENOMINEE LKSHOR 0030   77     180/  7/  9 1016.3R
$$




USA.gov is the U.S. government's official web portal to all federal, state and local government web resources and services.